EWG48FD LGKR-LSZH

Flight info

Callsign EWG48FD
Flight time N/A
Altitude 36000
Route OLGAT DCT AIOSA DCT RILIM DCT SAL DCT PEVAL DCT MOBDO DCT SOTOV/N0440F300 P66 KPT L856 NEGRA
Aircraft A320/M-SDE3FGHIRWY/LB1

Departure

Time 2026-04-30 09:02
Airport Corfu Ioannis Kapodistrias International Airport (LGKR)

Arrival

Time N/A
Airport Zürich Airport (LSZH)
Time Latitude Longitude Altitude Speed Heading
2026-04-30 08:42 39.60830 19.91307 19 ft 0 kts 79°
2026-04-30 08:51 39.60830 19.91306 18 ft 0 kts 79°
2026-04-30 08:55 39.60830 19.91305 19 ft 2 kts 79°
2026-04-30 08:55 39.60825 19.91273 18 ft 4 kts 75°
2026-04-30 08:56 39.60817 19.91240 18 ft 4 kts 68°
2026-04-30 08:56 39.60805 19.91209 19 ft 4 kts 47°
2026-04-30 08:56 39.60787 19.91195 20 ft 2 kts 349°
2026-04-30 08:56 39.60786 19.91195 20 ft 0 kts 348°
2026-04-30 08:59 39.60792 19.91194 20 ft 6 kts 348°
2026-04-30 08:59 39.60852 19.91177 18 ft 9 kts 348°
2026-04-30 09:00 39.60904 19.91163 18 ft 7 kts 348°
2026-04-30 09:00 39.60955 19.91148 19 ft 12 kts 348°
2026-04-30 09:00 39.61043 19.91124 19 ft 12 kts 348°
2026-04-30 09:00 39.61119 19.91103 19 ft 10 kts 348°
2026-04-30 09:01 39.61184 19.91084 20 ft 10 kts 343°
2026-04-30 09:01 39.61224 19.91012 21 ft 9 kts 285°
2026-04-30 09:01 39.61203 19.90959 22 ft 8 kts 201°
2026-04-30 09:01 39.61005 19.91009 19 ft 65 kts 167°
2026-04-30 09:02 39.59296 19.91451 199 ft 164 kts 169°
2026-04-30 09:02 39.58182 19.91818 811 ft 168 kts 150°
2026-04-30 09:02 39.57378 19.92945 1409 ft 179 kts 128°
2026-04-30 09:03 39.56506 19.94191 1662 ft 199 kts 140°
2026-04-30 09:03 39.55395 19.95415 1959 ft 217 kts 143°
2026-04-30 09:03 39.54200 19.96658 2638 ft 222 kts 143°
2026-04-30 09:03 39.52980 19.97926 3363 ft 226 kts 143°
2026-04-30 09:04 39.51757 19.99231 4094 ft 228 kts 143°
2026-04-30 09:04 39.50541 20.00553 4779 ft 233 kts 143°
2026-04-30 09:04 39.49289 20.01915 5455 ft 236 kts 143°
2026-04-30 09:04 39.48014 20.03290 6181 ft 238 kts 143°
2026-04-30 09:05 39.46757 20.04658 6885 ft 239 kts 143°
2026-04-30 09:05 39.45481 20.06065 7577 ft 241 kts 142°
2026-04-30 09:05 39.44218 20.07483 8259 ft 245 kts 140°
2026-04-30 09:05 39.43222 20.09382 8685 ft 268 kts 107°
2026-04-30 09:06 39.43216 20.11825 9235 ft 279 kts 71°
2026-04-30 09:06 39.44246 20.13891 9868 ft 280 kts 36°
2026-04-30 09:06 39.45984 20.14938 10541 ft 274 kts
2026-04-30 09:06 39.47831 20.14679 11202 ft 266 kts 332°
2026-04-30 09:07 39.49271 20.13263 11899 ft 259 kts 304°
2026-04-30 09:07 39.50260 20.11340 12572 ft 260 kts 300°
2026-04-30 09:07 39.51245 20.09377 13330 ft 260 kts 301°
2026-04-30 09:07 39.52238 20.07418 14047 ft 260 kts 301°
2026-04-30 09:08 39.53243 20.05445 14681 ft 261 kts 301°
2026-04-30 09:08 39.54239 20.03496 15300 ft 263 kts 301°
2026-04-30 09:08 39.55250 20.01514 15901 ft 265 kts 301°
2026-04-30 09:08 39.56267 19.99515 16510 ft 267 kts 301°
2026-04-30 09:09 39.57297 19.97495 17116 ft 269 kts 301°
2026-04-30 09:09 39.58333 19.95464 17725 ft 271 kts 301°
2026-04-30 09:09 39.59376 19.93420 18329 ft 273 kts 301°
2026-04-30 09:09 39.60432 19.91350 18864 ft 275 kts 300°
2026-04-30 09:10 39.61287 19.89143 19123 ft 284 kts 283°
2026-04-30 09:10 39.61450 19.86530 19250 ft 300 kts 270°
2026-04-30 09:10 39.61734 19.83803 19363 ft 314 kts 291°
2026-04-30 09:10 39.62936 19.81339 19493 ft 332 kts 308°
2026-04-30 09:11 39.64627 19.79172 19618 ft 350 kts 315°
2026-04-30 09:11 39.66507 19.77120 19750 ft 364 kts 317°
2026-04-30 09:11 39.68477 19.74993 20065 ft 370 kts 316°
2026-04-30 09:11 39.70418 19.72774 20503 ft 372 kts 314°
2026-04-30 09:12 39.72313 19.70447 20970 ft 374 kts 313°
2026-04-30 09:12 39.74135 19.68077 21416 ft 376 kts 311°
2026-04-30 09:12 39.75957 19.65622 21863 ft 378 kts 311°
2026-04-30 09:12 39.77776 19.63134 22305 ft 380 kts 311°
2026-04-30 09:13 39.79608 19.60631 22739 ft 382 kts 311°
2026-04-30 09:13 39.81431 19.58155 23160 ft 384 kts 311°
2026-04-30 09:13 39.83292 19.55640 23582 ft 386 kts 311°
2026-04-30 09:13 39.85170 19.53107 23938 ft 389 kts 311°
2026-04-30 09:14 39.87044 19.50589 24287 ft 390 kts 312°
2026-04-30 09:14 39.88945 19.48047 24632 ft 392 kts 312°
2026-04-30 09:14 39.90867 19.45480 25014 ft 393 kts 311°
2026-04-30 09:14 39.92753 19.42953 25373 ft 394 kts 311°
2026-04-30 09:15 39.94670 19.40377 25730 ft 395 kts 311°
2026-04-30 09:15 39.96593 19.37790 26072 ft 396 kts 311°
2026-04-30 09:15 39.98492 19.35231 26397 ft 397 kts 312°
2026-04-30 09:15 40.00421 19.32630 26732 ft 399 kts 312°
2026-04-30 09:16 40.02355 19.30021 27067 ft 400 kts 312°
2026-04-30 09:16 40.04296 19.27397 27397 ft 402 kts 312°
2026-04-30 09:16 40.06241 19.24761 27418 ft 402 kts 311°
2026-04-30 09:16 40.07868 19.23046 25247 ft 454 kts 327°